Regional Weather Roundup
Issued by NWS

Home | Current Version | Previous Version | Text Only | Print | Product List | Glossary Off
Versions: 1 2 3 4 5 6 7 8 9 10 11 12 13 14 15 16 17 18 19 20 21 22 23 24 25 26 27

000
ASUS45 KSLC 250210
RWRUT

UTAH REGIONAL WEATHER ROUNDUP
NATIONAL WEATHER SERVICE SALT LAKE CITY UT
800 PM MDT MON JUL 24 2017

UTZ001>011-023>025-250300-

NORTHERN UTAH

CITY           SKY/WX    TMP DP  RH WIND       PRES   REMARKS
BRIGHAM CITY   CLOUDY    88  39  17 NE6       29.92S
HILL AFB       CLOUDY    88  45  22 CALM      29.96S
LOGAN          MOCLDY    82  49  31 N10       29.94F
OGDEN          CLOUDY    90  44  20 N5        29.91S
SALT LAKE CITY CLOUDY    94  44  17 N9        29.89S HX  90
TOOELE VALLEY  CLOUDY    88  59  37 N7        29.90S
WENDOVER       CLOUDY    84  47  27 NW24G33   29.94R
HEBER CITY     MOCLDY    77  50  38 CALM      30.02R
WEST JORDAN    CLOUDY    90  58  34 CALM      29.94R

$$

UTZ011>015-024>027-250300-

CENTRAL/NORTHEAST UTAH

CITY           SKY/WX    TMP DP  RH WIND       PRES   REMARKS
PROVO AIRPORT  MOCLDY    87  56  34 N3        29.93R
MOAB/CANYONLAN LGT RAIN  82  59  45 S16       29.95R
DELTA          CLOUDY    88  41  19 S14G22    29.96R
PRICE          CLOUDY    79  47  32 NE12      30.10R
RICHFIELD      CLEAR     77  50  38 SW16G24   30.08
ROOSEVELT      CLOUDY    81  46  30 W15       30.05S
VERNAL         CLOUDY    83  49  30 W13       30.02R

$$

UTZ013>016-019>022-027-250300-

SOUTHERN UTAH

CITY           SKY/WX    TMP DP  RH WIND       PRES   REMARKS
BRYCE CANYON   RAIN      59  57  93 NW6       30.29R FOG
CEDAR CITY     CLOUDY    68  61  78 SW7       30.10R
MILFORD        CLOUDY    78  54  43 SW20G28   30.03R
ST GEORGE      MOCLDY    90  58  33 NE7       29.89S
HANKSVILLE     CLOUDY    82  50  32 W3        29.99R
KANAB          MOCLDY    72  59  64 N21       30.12
BLANDING       CLOUDY    76  51  40 SW9G18    30.19R

$$

REGIONAL REPORTS     COLORADO/ARIZONA

CITY           SKY/WX    TMP DP  RH WIND       PRES   REMARKS
CRAIG, CO      CLOUDY    77  48  35 SW6       30.09R
GRAND JUNCTION CLOUDY    90  50  25 S13G20    29.97R
RIFLE, CO      CLOUDY    86  46  24 NW6       30.02R
MONTROSE, CO   CLOUDY    78  55  44 SE7       30.09R
CORTEZ, CO     CLOUDY    80  53  39 S9        30.12R
COLORADO CITY  MOCLDY    84  57  39 NW6       30.06R
PAGE, AZ       CLOUDY    87  54  32 SW6       29.98R
GRAND CANYON   MOCLDY    72  56  57 W5        30.19R
KINGMAN, AZ    MOCLDY    77  65  66 SW17      29.99R
FLAGSTAFF, AZ  CLOUDY    67  60  78 W3        30.23R

$$

REGIONAL REPORTS    NEVADA/IDAHO/WYOMING

CITY           SKY/WX    TMP DP  RH WIND       PRES   REMARKS
LAS VEGAS, NV  MOCLDY    94  60  32 SW12      29.83R HX  94
ELY, NY        CLOUDY    72  46  39 NW6       30.17R
ELKO, NV       CLOUDY    81  41  24 VRB3      30.05R
POCATELLO, ID  PTCLDY    87  42  20 S6        29.96R
BURLEY, ID     CLOUDY    83  52  34 CALM      29.90S
FORT BRIDGER,    N/A     80  40  23 S6        30.18R
EVANSTON, WY   CLOUDY    80  42  25 W12       30.16R
ROCK SPRINGS,  CLOUDY    80  33  18 SW6       30.13S
KEMMERER, WY     N/A     73  37  27 N10       30.18S

$$




USA.gov is the U.S. government's official web portal to all federal, state and local government web resources and services.